Location: Sandgate
(32.8667°S, 151.7000°E)
Time: 23:01:26
(UTC+00:00)

Daily predictions for brighter satellites

Satellite Brightness Start Highest point End
(mag) Time Altitude Azimuth Time Altitude Azimuth Time Altitude Azimuth
Cosmos 2219 Rocket 3.8 17:51:58 27° NE 17:51:58 27° NE 17:54:27 10° NNE
COSMOS 2428 3.7 18:07:08 40° NNE 18:07:08 40° NNE 18:10:41 10° NNE
Cosmos 2344 4.4 18:10:44 50° NW 18:10:44 50° NW 18:18:23 10° N
Okean O Rocket 4.1 18:09:19 10° ENE 18:12:21 19° ESE 18:15:24 10° SSE
Atlas Centaur 2 3.1 18:17:28 30° NE 18:17:28 30° NE 18:19:47 10° ENE
Meteor 2-3 Rocket 4.2 18:21:20 50° N 18:21:20 50° N 18:25:28 10° N
ATLAS 3B R/B 2.7 18:23:59 61° NW 18:25:23 77° WSW 18:32:54 10° SSE
Cosmos 2237 Rocket 3.1 18:23:44 27° S 18:26:25 45° ESE 18:31:46 10° NE
Cosmos 2297 Rocket 2.4 18:27:56 57° S 18:27:56 57° S 18:32:26 10° SSE
Cosmos 1500 Rocket 4.1 18:31:13 54° NE 18:31:13 54° NE 18:34:53 10° NNE
CENTAUR R/B 3.7 18:33:47 33° SSW 18:33:47 33° SSW 18:38:27 10° SSE
Cosmos 1818 3.9 18:35:24 50° NNW 18:35:24 50° NNW 18:39:37 10° NNE
ATLAS 5 CENTAUR R/B 2.3 18:36:34 44° N 18:36:34 44° N 18:39:31 10° NNE
Cosmos 2333 Rocket 3.5 18:40:36 25° NNW 18:40:36 25° NNW 18:43:14 10° N
SL-16 R/B 4.5 18:34:54 10° SSE 18:39:03 20° ESE 18:43:10 10° ENE
Lacrosse 5 rocket 2.9 18:41:48 29° N 18:41:48 29° N 18:44:14 10° NNE
USA 215 4.4 18:35:26 10° SSE 18:39:54 27° SSW 18:39:54 27° SSW
Cosmos 158 Rocket 4.0 18:41:34 43° S 18:43:24 83° ESE 18:48:45 10° NNE
BREEZE-M DEB (TANK) 3.4 18:38:28 10° NW 18:48:08 67° NE 18:51:41 10° ESE
MOS 1-B 4.2 18:43:40 10° N 18:49:29 79° WNW 18:53:19 23° SSW
Cosmos 372 Rocket 4.4 18:48:05 10° N 18:53:14 62° ENE 18:58:28 10° SSE
STARLINK-1055 4.5 18:52:58 38° S 18:53:49 44° SE 18:57:49 10° ENE
OAO 3 Copernicus 4.2 18:54:00 57° WNW 18:55:02 86° NNE 19:00:09 10° ESE
STARLINK-1112 4.3 18:54:17 26° NNW 18:56:23 53° NE 19:00:30 10° SE
STARLINK-1022 4.3 18:57:44 38° S 18:58:47 48° SE 19:02:50 10° ENE
Cosmos 1680 Rocket 3.5 19:00:18 47° WSW 19:01:13 54° WNW 19:06:17 10° N
STARLINK-1128 4.1 18:59:05 25° NNW 19:01:21 60° NE 19:05:30 10° SE
Cosmos 2227 Rocket 2.4 19:01:19 42° W 19:02:18 46° WSW 19:07:46 10° S
STARLINK-1042 4.2 19:02:32 38° S 19:03:48 54° SE 19:07:53 10° ENE
SMAP 4.1 19:01:26 10° NE 19:05:53 46° ESE 19:10:24 10° S
STARLINK-1113 3.9 19:03:52 23° NNW 19:06:19 68° NE 19:10:30 10° SE
DELTA 2 R/B (1) 4.2 19:04:47 33° SW 19:06:40 43° S 19:12:02 10° ESE
CZ-4B R/B 3.1 19:02:26 10° NNE 19:07:48 88° ESE 19:13:10 10° SSW
STARLINK-1056 4.0 19:07:18 36° SSW 19:08:46 60° SE 19:12:54 10° NE
USA 267 3.8 19:03:06 10° ENE 19:09:26 54° SE 19:14:52 15° SSW
Cosmos 1606 4.5 19:06:22 10° NNE 19:09:50 33° E 19:13:22 10° SSE
STARLINK-1119 3.7 19:08:39 22° NW 19:11:17 77° NE 19:15:29 10° SE
SL-24 R/B - RUBIN 2 3.8 19:11:39 43° W 19:12:25 48° WNW 19:16:54 10° N
Cosmos 2150 Rocket 4.2 19:07:21 10° N 19:12:30 71° ENE 19:17:46 10° SSE
STARLINK-1054 3.8 19:12:04 34° SSW 19:13:45 68° SE 19:17:54 10° NE
STARLINK-1114 3.6 19:13:28 20° NW 19:16:16 86° NE 19:20:29 10° SE
STARLINK-1062 3.7 19:16:52 32° SW 19:18:44 76° SE 19:22:54 10° NE
NOAA 6 4.1 19:13:57 10° N 19:19:01 55° W 19:23:53 11° SSW
Cosmos 2285 Rocket 4.4 19:15:18 10° NW 19:21:04 37° WSW 19:26:55 10° S
STARLINK-1130 (DARKSAT) 3.5 19:18:13 18° NW 19:21:13 85° SW 19:25:27 10° SE
Cosmos 1346 Rocket 3.3 19:21:29 36° WSW 19:22:10 38° W 19:25:55 10° NNW
Iridium 4 Rocket 3.6 19:23:10 32° WSW 19:23:34 33° W 19:27:19 10° NNW
STARLINK-1053 3.6 19:21:39 29° SW 19:23:42 85° SE 19:27:53 10° NE
STARLINK-1084 3.5 19:23:01 17° NW 19:26:12 76° SW 19:30:25 10° SE
ISS -1.8 19:27:56 17° SSW 19:27:56 17° SSW 19:29:36 10° SSE
STARLINK-1061 3.6 19:26:26 27° SW 19:28:42 86° NW 19:32:52 10° NE
ADEOS Rocket 4.4 19:22:52 10° SSE 19:29:51 48° E 19:36:05 10° N
STARLINK-1098 3.5 19:27:48 15° NW 19:31:12 68° SW 19:35:24 10° SE
OAO 3 Rocket 3.9 19:28:54 23° W 19:31:14 39° NNW 19:35:35 10° NE
STARLINK-1065 3.5 19:29:18 25° SW 19:31:40 80° NW 19:35:49 10° NE
Cosmos 2219 Rocket 4.1 19:33:46 11° WNW 19:33:46 11° WNW 19:34:32 10° WNW
STARLINK-1067 3.6 19:31:12 24° SW 19:33:39 77° NW 19:37:47 10° NE
Cosmos 2298 Rocket 4.0 19:28:52 10° NNW 19:34:08 64° WSW 19:39:30 10° S
STARLINK-1123 3.6 19:32:36 13° WNW 19:36:10 61° SW 19:40:20 10° SE
STARLINK-67 2.0 19:35:35 34° NNW 19:36:12 63° NE 19:38:09 10° SE
Sich 1 3.0 19:31:54 10° SSW 19:36:24 68° W 19:40:48 10° N
STARLINK-1058 3.6 19:36:00 22° SW 19:38:37 69° NW 19:42:45 10° NE
STARLINK-1097 3.7 19:37:23 12° WNW 19:41:09 54° SW 19:45:17 10° SE
Cosmos 1980 4.4 19:37:30 16° SW 19:41:21 34° WNW 19:46:25 10° NNW
Cosmos 1689 Rocket 3.2 19:43:07 23° W 19:43:07 23° W 19:45:14 10° NW
STARLINK-1043 3.7 19:40:47 20° SW 19:43:35 61° NW 19:47:42 10° NNE
SKYMED 2 4.3 19:39:23 10° SSE 19:43:43 57° E 19:48:00 10° N
STARLINK-1099 3.9 19:42:09 10° WNW 19:46:07 49° SW 19:50:12 10° SSE
Cosmos 1862 4.0 19:43:21 10° SSW 19:47:08 35° W 19:50:51 10° NNW
Okean O Rocket 2.4 19:44:34 10° NNW 19:48:26 31° W 19:52:20 10° SW
YAOGAN 6 2.5 19:45:16 10° N 19:48:53 81° WNW 19:52:38 10° SSW
Delta 2 Rocket 4.2 19:44:36 17° WSW 19:49:06 76° NNW 19:54:48 10° ENE
Lacrosse 4 Rocket 1.3 19:46:26 10° NNW 19:50:29 89° SW 19:54:33 10° SSE
STARLINK-1104 4.0 19:47:07 10° WNW 19:51:07 44° SW 19:55:10 10° SSE
OAO 2 Rocket 3.3 19:47:23 16° WSW 19:51:18 76° NNW 19:56:14 10° ENE
STARLINK-1063 4.0 19:50:21 16° WSW 19:53:31 47° NW 19:57:31 10° NNE
Cosmos 1666 Rocket 3.5 19:49:17 10° SSW 19:53:38 64° W 19:57:58 10° N
Feng Yun 1-1 Rocket 4.3 19:47:54 10° NNE 19:53:40 88° WNW 19:59:20 10° SSW
STARLINK-1144 4.1 19:52:11 10° WNW 19:56:07 40° SW 20:00:06 10° SSE
NOAA 12 4.1 19:51:52 10° N 19:57:11 70° WNW 20:02:34 10° SSW
STARLINK-1064 4.2 19:55:08 14° WSW 19:58:29 42° NW 20:02:25 10° NNE
Cosmos 1633 Rocket 3.0 19:54:37 10° SSW 19:59:05 70° W 20:03:28 10° N
STARLINK-1103 4.3 19:57:15 10° WNW 20:01:07 36° SW 20:05:02 10° SSE
Cosmos 1605 Rocket 4.4 19:56:24 10° SSW 20:02:06 41° W 20:07:47 10° NNW
Cosmos 1125 Rocket 3.5 19:57:29 10° NNW 20:02:40 64° WSW 20:07:58 10° S
STARLINK-1041 4.4 19:59:54 12° WSW 20:03:25 37° NW 20:07:16 10° NNE
Atlas Centaur 2 3.4 20:00:55 10° WNW 20:03:43 16° NNW 20:06:15 10° N
STARLINK-1175 3.5 20:02:11 10° SSW 20:04:46 42° SE 20:07:18 10° ENE
STARLINK-1101 4.4 20:02:20 10° WNW 20:06:07 33° SW 20:09:57 10° SSE
Envisat 3.4 20:02:44 10° N 20:07:33 43° W 20:12:27 10° SSW
Hubble Space Telescope 3.2 20:06:31 10° NNW 20:09:35 20° NNE 20:12:39 10° ENE
Cosmos 2237 Rocket 3.5 20:06:06 10° SW 20:10:03 20° W 20:13:58 10° NW
H-2A R/B 4.4 20:09:05 10° NW 20:11:11 15° W 20:13:19 10° WSW
Abrixas rocket 3.0 20:08:22 10° NNW 20:11:13 49° NE 20:14:05 10° ESE
Geosat 4.5 20:06:52 10° N 20:11:38 42° WNW 20:16:25 10° SW
IRS-1C Rocket 4.2 20:07:24 10° N 20:12:37 61° WNW 20:17:54 10° SSW
Cosmos 1727 Rocket 4.5 20:08:53 10° NW 20:14:34 38° WSW 20:20:21 10° SSW
ATLAS 3B R/B 4.3 20:12:52 10° WSW 20:17:19 16° SW 20:21:48 10° S
Helios 1A Rocket 3.8 20:14:03 10° NNW 20:17:45 31° W 20:21:28 10° SW
Cosmos 1151 Rocket 3.8 20:14:28 10° NW 20:18:22 31° W 20:22:19 10° SSW
STARLINK-1146 4.4 20:16:46 10° SSW 20:20:01 35° SE 20:23:13 10° ENE
